Location: Dappach
(48.6833°N, 15.5000°E)
Time: 09:12:09
(UTC+00:00)

Daily predictions for brighter satellites

Satellite Brightness Start Highest point End
(mag) Time Altitude Azimuth Time Altitude Azimuth Time Altitude Azimuth
ATLAS 2AS CENTAUR R/B 3.2 15:21:56 10° SSW 15:29:52 77° SE 15:37:53 10° NE
SL-16 R/B 4.5 15:31:04 10° N 15:35:43 23° NW 15:40:21 10° WSW
ALOS 2.6 15:31:57 10° S 15:36:36 73° WSW 15:41:17 10° NNW
Cosmos 1048 Rocket 4.4 15:34:04 10° SSW 15:39:26 71° WNW 15:44:51 10° NNE
COSMOS 2428 3.4 15:34:23 10° S 15:39:29 36° ESE 15:44:38 10° NE
Cosmos 304 Rocket 3.9 15:35:33 10° NNW 15:40:17 53° ENE 15:44:59 10° SE
H-2A R/B 3.5 15:37:33 10° SE 15:40:47 29° ENE 15:44:01 10° N
Lacrosse 5 rocket 3.2 15:39:46 10° S 15:42:44 18° SE 15:45:36 10° E
Cosmos 1302 Rocket 4.0 15:38:19 10° NNW 15:43:34 61° ENE 15:48:45 10° SE
Cosmos 332 Rocket 3.9 15:40:18 10° NNW 15:45:12 84° WSW 15:50:02 10° SSE
BREEZE-M DEB (TANK) 2.7 15:44:33 10° WNW 15:48:06 55° SSW 15:50:16 10° SE
IRS-1C Rocket 4.2 15:44:10 10° SE 15:49:18 57° ENE 15:54:29 10° N
YAOGAN 6 4.3 15:47:57 10° E 15:49:45 14° ENE 15:51:35 10° NNE
SL-4 R/B 2.6 15:48:19 10° SW 15:51:48 40° SE 15:55:27 11° ENE
SeaSat 1 4.3 15:52:01 10° NE 15:53:24 11° NNE 15:54:47 10° NNE
Okean O Rocket 2.2 15:49:36 10° S 15:53:54 61° WSW 15:58:13 10° NNW
COSMOS 2455 3.8 15:48:54 10° WSW 15:54:38 44° NW 16:00:25 10° NNE
Helios 1A Rocket 3.6 15:50:35 10° S 15:54:39 60° WSW 15:58:44 10° NNW
Cosmos 2333 4.3 15:52:44 10° SSW 15:58:24 71° ESE 16:04:10 10° NNE
NOSS 2 (A) 4.1 15:56:45 10° NNW 15:59:15 50° NE 16:01:33 10° ESE
CZ-4B R/B 4.0 15:55:15 10° S 16:00:28 57° WSW 16:05:48 10° NNW
Cosmos 1782 3.0 15:57:26 10° SSW 16:01:26 77° WNW 16:05:26 10° N
CENTAUR R/B 3.9 15:54:10 10° NW 16:02:02 60° WSW 16:10:30 10° SSE
Cosmos 2228 Rocket 4.3 15:57:44 10° SSW 16:02:07 44° WNW 16:06:32 10° N
Cosmos 1862 Rocket 4.4 15:58:35 10° SSE 16:02:18 29° E 16:06:05 10° NNE
USA 215 3.4 15:56:52 10° NE 16:03:25 76° NNW 16:09:56 10° WSW
Cosmos 2322 3.7 15:58:12 10° SSW 16:03:55 88° ESE 16:09:40 10° NNE
ERBS 3.2 16:01:09 10° WNW 16:04:25 50° SW 16:07:40 10° SE
Cosmos 2279 Rocket 4.0 15:59:57 10° N 16:06:15 84° E 16:12:32 10° S
Meteor 2-6 Rocket 4.2 16:01:02 10° S 16:06:19 61° E 16:11:39 10° NNE
Cosmos 1315 Rocket 2.8 16:02:26 10° S 16:06:25 88° ESE 16:10:29 10° NNE
Okean-O 3.0 16:02:19 10° SE 16:06:26 39° ENE 16:10:35 10° N
Cosmos 1346 Rocket 3.2 16:03:18 10° NNW 16:07:15 68° W 16:11:12 10° S
TIMED 4.5 16:05:20 10° SSW 16:09:41 78° ESE 16:14:05 10° NNE
Cosmos 2278 Rocket 2.3 16:06:48 10° NNW 16:12:23 56° ENE 16:17:56 10° SE
AQUARIUS 4.1 16:10:47 10° SSE 16:15:16 74° ENE 16:19:47 10° N
Envisat 3.2 16:10:44 10° SE 16:15:33 46° ENE 16:20:25 10° N
Cosmos 1666 3.8 16:13:48 10° NNE 16:16:47 22° ENE 16:19:45 10° ESE
Meteor 1-10 Rocket 4.2 16:12:10 10° S 16:17:39 67° E 16:23:13 10° NNE
Cosmos 1707 Rocket 3.6 16:13:46 10° S 16:18:13 90° E 16:22:44 10° N
Cosmos 2360 Rocket 3.1 16:14:57 10° SW 16:20:23 47° NW 16:25:54 10° NNE
Cosmos 1689 Rocket 4.3 16:18:40 10° N 16:21:16 26° WNW 16:23:51 10° SW
STARLINK-67 2.7 16:22:31 10° WSW 16:25:15 61° NNW 16:26:28 28° NE
Cosmos 2369 Rocket 3.9 16:23:58 10° N 16:26:42 14° NNE 16:27:19 13° NE
SL-16 R/B 3.9 16:25:43 10° SE 16:28:00 14° ESE 16:28:00 14° ESE
Nadezhda 4 Rocket 4.1 16:22:26 10° SSE 16:28:34 55° E 16:34:43 10° NNE
Cosmos 1992 Rocket 4.0 16:24:12 10° NNW 16:29:23 59° ENE 16:34:32 10° SE
Cosmos 2333 Rocket 2.2 16:25:10 10° SSW 16:30:55 87° ESE 16:36:30 11° NNE
Meteor 1-11 Rocket 3.8 16:25:00 10° N 16:31:00 78° ENE 16:36:57 10° SSE
YAOGAN 3 4.5 16:28:50 10° SSE 16:33:10 70° ENE 16:37:31 10° N
Cosmos 1908 Rocket 3.9 16:31:16 10° N 16:35:27 39° ENE 16:39:34 10° SE
COSMO-SKYMED 1 3.2 16:34:55 20° NE 16:37:14 34° E 16:41:11 10° SSE
Meteor 1-27 Rocket 3.8 16:32:55 10° S 16:38:33 63° E 16:44:20 10° NNE
RESURS DK-1 2.3 16:34:28 10° SSW 16:38:35 78° ESE 16:41:15 21° NE
Shenzhou-11 Module 3.6 16:36:40 10° SW 16:38:53 22° S 16:39:51 18° SE
USA 267 4.5 16:32:53 10° SSE 16:39:02 43° SW 16:45:13 10° WNW
Cosmos 2237 Rocket 2.6 16:35:19 10° S 16:40:39 43° ESE 16:43:57 22° NE
ATLAS 3B R/B 4.1 16:35:38 10° NW 16:41:49 40° WSW 16:48:08 10° S
ISS -3.6 16:38:55 10° WNW 16:42:16 72° SSW 16:44:04 25° SE
STARLINK-46 2.7 16:40:17 10° SW 16:42:56 54° SSE 16:43:16 49° ESE
NOSS 3-4 (A) 3.8 16:37:08 10° WSW 16:43:06 61° NW 16:48:17 16° NE
NOSS 3-4 (C) 3.8 16:37:13 10° WSW 16:43:13 61° NW 16:48:24 16° NE
Cosmos 2322 Rocket 4.2 16:41:19 10° W 16:45:32 21° NW 16:49:46 10° N
Cosmos 1812 2.6 16:42:05 10° S 16:45:56 83° E 16:49:28 12° NNE
YAOGAN 1 2.9 16:44:07 10° SE 16:48:09 39° ENE 16:52:12 10° N
COBE Rocket 3.9 16:44:44 10° N 16:49:23 75° WNW 16:54:02 10° SSW
Exosat Rocket 3.4 16:44:18 10° SSW 16:49:39 73° ESE 16:53:10 20° NNE
Cosmos 2026 Rocket 4.3 16:45:54 10° SSE 16:51:24 38° E 16:56:15 13° NNE
Cosmos 1900 4.2 16:46:49 10° NNW 16:51:44 72° NE 16:56:29 11° SE
SL-16 R/B 4.4 16:47:57 10° W 16:51:47 18° NW 16:55:38 10° N
NOAA 12 4.4 16:51:01 10° S 16:56:18 72° WSW 17:01:37 10° NNW
Cosmos 2219 Rocket 2.6 16:52:21 10° SW 16:57:55 63° WNW 17:02:43 14° NNE
Ariane Rocket 4.2 17:00:26 23° NNE 17:00:26 23° NNE 17:03:05 10° N
BREEZE-M R/B 2.6 16:55:14 10° W 17:00:34 76° N 17:01:16 54° ENE
Cosmos 1733 Rocket 4.1 16:58:01 10° NNW 17:02:12 47° W 17:06:24 10° SSW
Cosmos 1536 2.9 17:00:27 10° NNW 17:04:29 75° W 17:08:28 10° S
Okean 1-7 3.7 17:02:06 10° SSE 17:05:17 36° ESE 17:05:17 36° ESE
CZ-4 R/B 1.1 17:06:23 10° SSE 17:10:18 81° ENE 17:14:12 10° NNW
Cosmos 1980 3.6 17:05:13 10° SSW 17:10:50 76° ESE 17:13:46 30° NE
Cosmos 2297 3.8 17:07:05 10° NNW 17:12:42 53° NE 17:14:46 35° ESE
Cosmos 1627 Rocket 4.4 17:08:13 10° S 17:14:12 59° E 17:20:12 10° NNE
Cosmos 1943 Rocket 3.4 17:12:37 10° NNW 17:16:12 25° NNE 17:16:12 25° NNE
Lacrosse 5 rocket 1.1 17:17:14 10° SW 17:21:30 87° NNW 17:21:46 77° NE
ATLAS 2AS CENTAUR R/B 3.9 17:14:02 10° W 17:21:35 42° NNW 17:26:45 20° NNE
CSL-04 Rocket 3.5 17:16:33 10° SSE 17:21:50 82° ENE 17:27:09 10° NNW
YAOGAN 6 3.2 17:19:23 10° S 17:22:50 54° W 17:26:22 10° NNW
COSMOS 2428 3.7 17:18:14 10° SW 17:23:39 44° NW 17:27:49 17° NNE
SKYMED 2 3.6 17:23:37 34° N 17:25:30 80° WNW 17:29:51 10° SSW
Cosmos 2195 Rocket 4.4 17:21:20 10° S 17:27:32 80° E 17:33:51 10° N
Cosmos 1782 Rocket 3.7 17:25:22 10° N 17:35:19 - SSE 17:28:57 58° N
SeaSat 1 3.4 17:31:15 32° NNE 17:31:15 32° NNE 17:34:22 10° NNW
Cosmos 292 Rocket 3.9 17:25:44 10° NNW 17:30:37 76° WSW 17:35:28 10° SSE
SL-4 R/B 2.1 17:27:29 10° W 17:31:03 65° NW 17:31:03 65° NW
Cosmos 1092 Rocket 4.0 17:26:43 10° SSW 17:33:03 81° W 17:39:22 10° N
Cosmos 2251 Rocket 4.1 17:27:55 10° SW 17:33:08 57° WNW 17:36:13 24° N
NOSS 0 Rocket 4.1 17:27:53 10° SW 17:34:05 71° WNW 17:37:30 28° NNE
CSL-04 Debris 4.2 17:28:40 10° SSE 17:34:08 80° WSW 17:39:37 10° NNW
Cosmos 2242 Rocket 4.4 17:32:35 10° SSW 17:37:02 52° WNW 17:40:14 18° N
ATLAS 5 CENTAUR R/B 3.9 17:35:28 10° WSW 17:35:54 14° WSW 17:35:54 14° WSW
Cosmos 921 Rocket 4.1 17:34:02 10° NNW 17:36:26 33° NNW 17:36:26 33° NNW
Cosmos 1703 Rocket 3.7 17:37:57 10° SSW 17:42:25 75° W 17:42:45 70° NW
USA 215 3.8 17:44:09 37° NNE 17:46:01 46° N 17:52:10 10° W
Cosmos 1666 4.5 17:49:07 10° NNW 17:52:26 30° W 17:55:44 10° SSW
NOAA 11 4.3 17:48:08 10° S 17:53:35 74° WSW 17:59:05 10° NNW
Cosmos 2278 Rocket 4.2 17:51:26 10° NW 17:56:08 27° WSW 18:00:49 10° SSW
Cosmos 2344 4.4 17:47:58 10° NW 17:56:43 52° NE 17:59:09 45° ENE
IRS-1A Rocket 4.4 18:00:58 65° N 18:00:58 65° N 18:06:02 10° NNW
S3M 4.3 17:55:32 10° N 18:00:12 51° NNE 18:00:12 51° NNE
Cosmos 1867 4.2 17:56:21 10° NW 18:00:20 46° NNW 18:00:20 46° NNW
BREEZE-M DEB (TANK) 4.4 18:02:35 10° W 18:04:16 23° WSW 18:04:16 23° WSW
SL-16 R/B 2.8 18:05:59 10° SSW 18:09:56 47° SSW 18:09:56 47° SSW
Cosmos 2369 Rocket 3.7 18:06:44 10° NNW 18:09:07 25° N 18:09:07 25° N
COSMO-SKYMED 1 4.4 18:12:09 25° NW 18:13:18 28° WNW 18:17:01 10° SW
Cosmos 2333 Rocket 4.2 18:11:29 10° W 18:15:58 23° NW 18:18:31 17° N
Cosmos 1553 Rocket 4.2 18:10:18 10° NNW 18:16:38 72° W 18:22:59 10° S
ISS -0.4 18:16:29 10° W 18:17:00 12° WSW 18:17:00 12° WSW
NOSS 3-1 (C) 4.3 18:17:04 10° NW 18:22:54 49° N 18:22:54 49° N
Cosmos 2237 Rocket 3.4 18:19:30 10° WSW 18:24:48 38° NW 18:25:48 35° NNW
USA 229 DEB 4.3 18:24:05 10° NW 18:29:28 47° N 18:29:28 47° N
USA 229 4.4 18:24:12 10° NW 18:29:33 47° N 18:29:33 47° N
Cosmos 2219 Rocket 4.4 18:39:33 10° WNW 18:43:04 16° NW 18:44:26 15° NNW
Cosmos 1943 Rocket 4.2 18:56:00 10° NNW 18:57:45 21° NW 18:57:45 21° NW
ATLAS 2AS CENTAUR R/B 4.4 19:08:10 10° WNW 19:14:10 27° NNW 19:14:10 27° NNW
